Location: ????????
(55.0097°N, 38.5678°E)
Time: 02:17:02
(UTC+00:00)

NOSS 3-1 (C) - Visible Passes

Search period start: 15 December 2025 00:00
Search period end: 25 December 2025 00:00
Orbit: 619 x 1583 km, 63.4° (Epoch: 01 December)

Date Brightness Start Highest point End Pass type
(mag) Time Alt. Az. Time Alt. Az. Time Alt. Az.
15 Dec 5.3 01:58:44 25° SSW 01:58:44 25° SSW 02:02:45 10° S visible
16 Dec 5.8 01:14:44 20° SSE 01:14:44 20° SSE 01:17:09 10° SSE visible
16 Dec 5.9 03:02:08 12° SW 03:02:08 12° SW 03:02:58 10° SW visible
17 Dec 6.3 00:30:47 11° SSE 00:30:47 11° SSE 00:31:11 10° SSE visible
17 Dec 6.0 02:18:10 12° SSW 02:18:10 12° SSW 02:19:01 10° SSW visible
17 Dec 4.8 16:07:03 10° S 16:08:15 17° S 16:08:15 17° S visible
18 Dec 4.6 15:22:02 10° SSE 15:24:00 17° SE 15:24:00 17° SE visible
18 Dec 5.1 17:10:12 10° SW 17:11:22 18° SW 17:11:22 18° SW visible
19 Dec 4.9 14:38:12 10° SE 14:39:43 11° ESE 14:39:43 11° ESE visible
19 Dec 3.9 16:24:12 10° SSW 16:27:05 36° S 16:27:05 36° S visible
20 Dec 3.6 15:38:31 10° S 15:42:44 38° SE 15:42:44 38° SE visible
20 Dec 5.0 17:28:17 10° WSW 17:30:05 23° WSW 17:30:05 23° WSW visible
21 Dec 4.1 14:53:14 10° SSE 14:57:03 24° ESE 14:58:20 22° E visible
21 Dec 3.6 16:41:59 10° SW 16:45:41 54° WSW 16:45:41 54° WSW visible
22 Dec 4.7 14:08:41 10° SE 14:11:21 15° ESE 14:13:53 11° ENE visible
22 Dec 2.9 15:55:53 10° SW 16:00:41 70° SE 16:01:13 64° E visible
22 Dec 5.2 17:46:41 10° W 17:48:34 22° W 17:48:34 22° W visible
23 Dec 3.4 15:10:03 10° SSW 15:14:37 46° SE 15:16:42 31° ENE visible
23 Dec 4.0 17:00:12 10° WSW 17:04:03 47° WNW 17:04:03 47° WNW visible
24 Dec 4.0 14:24:34 10° S 14:28:41 29° ESE 14:32:09 16° ENE visible
24 Dec 3.2 16:13:49 10° WSW 16:18:47 74° NW 16:19:29 65° NNE visible
24 Dec 5.5 18:05:12 10° WNW 18:06:50 20° WNW 18:06:50 20° WNW visible
